Location: The D'Auria's Ocala Star Observatory
(29.0276°N, 82.1742°W)
Time: 17:30:36
(UTC-04:00)

Daily predictions for brighter satellites

Satellite Brightness Start Highest point End
(mag) Time Altitude Azimuth Time Altitude Azimuth Time Altitude Azimuth
Cosmos 1833 4.3 20:13:29 10° NNW 20:19:11 88° WSW 20:24:55 10° SSE
Spot 2 Rocket 3.6 20:16:34 10° SSE 20:21:35 60° ENE 20:26:35 10° N
Cosmos 1025 Rocket 3.7 20:20:25 10° NNE 20:24:24 34° E 20:28:20 10° SSE
Cosmos 2219 3.6 20:19:14 10° N 20:24:37 46° ENE 20:29:59 10° SE
Cosmos 1934 Rocket 4.3 20:24:16 10° SSE 20:29:55 41° E 20:35:38 10° NNE
Resurs 01 Rocket 1.6 20:25:36 10° SSE 20:29:58 72° ENE 20:34:24 10° N
Cosmos 1400 Rocket 4.5 20:28:17 10° SSW 20:32:11 40° W 20:36:03 10° N
Cosmos 1315 Rocket 3.0 20:28:38 10° S 20:32:35 79° W 20:36:37 10° N
Cosmos 2278 4.0 20:30:36 10° S 20:35:53 43° ESE 20:41:13 10° NE
Cosmos 1697 Rocket 4.3 20:34:18 10° ESE 20:36:35 12° E 20:38:52 10° ENE
Meteor 2-4 Rocket 4.1 20:31:37 10° N 20:37:16 47° E 20:42:56 10° SSE
EP 1 4.4 20:35:17 10° SSW 20:37:56 45° ESE 20:40:19 10° NE
Tiangong 1 4.1 20:38:54 10° NW 20:39:53 11° NNW 20:40:51 10° N
NOSS 7 (E) 4.4 20:38:56 10° SSW 20:42:46 79° ESE 20:46:08 10° NNE
ATLAS 2AS CENTAUR R/B 4.1 20:35:35 10° NW 20:42:52 43° WSW 20:49:36 10° S
USA 186 3.1 20:44:00 16° ESE 20:45:35 22° ENE 20:48:03 10° NNE
Centaur AC-119 3.9 20:43:16 10° W 20:46:03 16° SW 20:47:44 10° S
Myojo/LAPS 2.5 20:43:27 10° WSW 20:46:34 69° S 20:48:07 18° E
H-2A R/B 3.5 20:44:00 11° SE 20:47:18 33° ENE 20:50:49 10° N
Cosmos 2369 3.9 20:43:20 10° S 20:48:45 50° ESE 20:54:13 10° NNE
CZ-4B DEB 2.8 20:45:33 10° SSE 20:48:46 61° ENE 20:52:00 10° N
OTV 4 3.1 20:47:57 10° NW 20:49:39 14° N 20:51:22 10° NE
Cosmos 1544 Rocket 3.4 20:47:50 10° S 20:52:09 76° E 20:56:33 10° N
NOSS 7 (H) 4.5 20:49:28 10° SSW 20:52:53 50° ESE 20:56:02 10° NE
CZ-3A R/B 4.2 20:36:20 10° W 20:53:15 37° SW 20:57:07 12° SSE
Meteor 1-23 Rocket 4.2 20:48:44 10° N 20:54:20 63° E 20:59:59 10° SSE
ATLAS 3B CENTAUR R/B -0.6 20:52:57 10° W 20:54:54 65° S 20:55:18 44° ESE
OAO 2 Rocket 3.4 20:54:11 10° WSW 20:59:12 76° NNW 21:03:59 12° ENE
FengYun 1-2 T 4.3 20:54:40 10° SSE 21:00:20 84° WSW 21:05:59 10° NNW
CZ-2D R/B 3.2 20:58:43 12° SSE 21:02:12 61° ENE 21:06:01 10° N
Cosmos 968 Rocket 3.6 21:01:17 10° NNW 21:06:23 73° WSW 21:11:27 10° S
ERS-1 Rocket 4.0 21:07:31 23° E 21:08:55 26° ENE 21:13:01 10° NNE
Cosmos 1821 Rocket 4.3 21:03:52 10° SSW 21:09:57 67° W 21:16:01 10° N
GOES 2 Rocket 3.3 21:06:02 10° W 21:10:07 54° SSW 21:12:14 28° SE
Hubble Space Telescope 0.7 21:06:23 10° W 21:10:31 74° S 21:12:19 32° ESE
SL-24 R/B - RUBIN 2 4.4 21:06:02 10° S 21:11:16 48° ESE 21:17:10 10° NE
Cosmos 1605 Rocket 4.0 21:06:27 10° S 21:12:46 70° E 21:19:02 10° N
BREEZE-M DEB (TANK) 3.4 21:07:32 10° NW 21:16:02 56° SW 21:17:56 24° SSE
Cosmos 1346 Rocket 2.7 21:16:33 10° N 21:20:28 62° E 21:21:51 37° SSE
ALOS 3.0 21:25:04 10° S 21:29:37 53° W 21:34:11 10° NNW
Cosmos 468 Rocket 4.3 21:29:33 40° ESE 21:30:03 41° E 21:34:51 10° NNE
FENGYUN 3A 4.0 21:24:57 10° S 21:30:14 63° WSW 21:35:32 10° NNW
Cosmos 2227 Rocket 2.6 21:25:43 10° N 21:31:06 44° ENE 21:32:24 38° ESE
Cosmos 1656 3.5 21:31:39 10° SSW 21:37:17 76° ESE 21:42:52 10° NNE
Cosmos 2082 3.8 21:38:15 10° N 21:43:44 54° ENE 21:44:33 49° E
Cosmos 2297 Rocket 2.6 21:41:37 10° N 21:46:58 42° ENE 21:47:09 42° ENE
H-2A R/B 3.7 21:49:24 21° NNE 21:49:24 21° NNE 21:51:09 10° NNE
Cosmos 2123 Rocket 4.2 21:42:13 10° NNW 21:48:20 68° W 21:53:28 15° S
SPOT 5 4.1 21:52:32 29° NE 21:52:32 29° NE 21:55:45 10° N
Cosmos 1975 3.8 21:55:16 26° SW 21:57:14 47° W 22:01:12 10° N
deb Chang Zheng 4 4.1 21:53:47 10° NNE 21:57:04 49° NNE 21:57:04 49° NNE
Cosmos 1626 Rocket 3.6 21:54:19 10° N 21:58:23 75° NNW 21:58:23 75° NNW
Cosmos 1459 Rocket 3.8 21:59:00 62° ESE 21:59:27 64° E 22:05:26 10° NNE
Cosmos 1602 Rocket 3.9 22:02:14 10° NNW 22:06:22 64° WNW 22:06:22 64° WNW
NOSS 3-4 (A) 3.8 22:01:31 10° NNW 22:08:44 82° WSW 22:10:48 52° SSE
NOSS 3-4 (C) 3.8 22:01:38 10° NNW 22:08:51 83° WSW 22:10:52 53° SSE
Nimbus 7 Rocket 4.4 22:04:08 10° NNE 22:10:12 87° WNW 22:12:29 41° SSW
Envisat 3.0 22:11:14 76° N 22:11:14 76° N 22:15:55 10° NNW
Cosmos 1461 4.4 22:11:31 10° NNW 22:13:43 31° NNW 22:13:43 31° NNW
Lacrosse 5 rocket 3.7 22:12:36 10° N 22:13:22 14° N 22:13:22 14° N
Cosmos 1066 Rocket 4.3 22:11:03 10° N 22:16:06 68° NNE 22:16:06 68° NNE
Cosmos 1697 Rocket 3.1 22:14:20 10° SSW 22:19:54 61° WNW 22:25:30 10° N
Cosmos 1802 Rocket 3.9 22:20:59 83° E 22:20:59 83° E 22:27:22 10° N
Cosmos 1980 Rocket 3.5 22:44:08 33° N 22:44:08 33° N 22:47:11 10° NNE
Cosmos 2016 Rocket 4.4 22:43:29 55° NNW 22:43:29 55° NNW 22:48:14 10° N
Cosmos 2227 Rocket 4.4 23:11:03 10° WNW 23:14:15 18° W 23:14:15 18° W
CZ-3 Stage 3 4.4 23:01:17 10° WNW 23:21:57 49° WSW 23:21:57 49° WSW
Milstar 3 Cent rocket 3.8 23:11:53 10° W 23:26:27 69° WSW 23:26:27 69° WSW
